Weather History for Yakima, WA

Change the Weather History Date:

Wednesday, February 13, 2013

  Actual Average Record
Temperature  
Mean Temperature 46 °F 36 °F  
Max Temperature 59 °F 46 °F 63 °F (1971)
Min Temperature 32 °F 26 °F -2 °F (1949)
Degree Days  
Heating Degree Days 19 29  
Month to date heating degree days 316 394  
Since 1 July heating degree days 3585 4112  
Cooling Degree Days 0 0  
Month to date cooling degree days 0 0  
Year to date cooling degree days 0 0  
Moisture  
Dew Point 30 °F    
Average Humidity 59    
Maximum Humidity 82    
Minimum Humidity 35    
Precipitation  
Precipitation 0.00 in 0.03 in 0.21 in (1962)
Month to date precipitation T 0.38  
Year to date precipitation 0.10 1.52  
Snow  
Snow 0.00 in 0.10 in 3.10 in (1980)
Month to date snowfall 0.0 1.4  
Year to date snowfall 1.1 6.7  
Since 1 July snowfall 15.3 19.7  
Snow Depth 0.00 in    
Sea Level Pressure  
Sea Level Pressure 30.30 in    
Wind  
Wind Speed 6 mph (NW)    
Max Wind Speed 24 mph    
Max Gust Speed 28 mph    
Visibility 10 miles    
Events      
T = Trace of Precipitation, MM = Missing Value Source: NWS Daily Summary

Daily Weather History Graph

Daily Weather History Graph

Search for Another Location

Airport:

Trip Planner

Search our weather history database for the weather conditions in past years. The results will help you decide how hot, cold, wet, or windy it might be!

Date:

Astronomy

Feb. 13, 2013 Rise Set
Actual Time 7:08 AM PST 5:24 PM PST
Civil Twilight 6:37 AM PST 5:56 PM PST
Nautical Twilight 6:01 AM PST 6:31 PM PST
Astronomical Twilight 5:26 AM PST 7:06 PM PST
Moon 8:23 AM PST (2/13) 9:52 PM PST (2/13)
Length of Visible Light 11h 18m
Length of Day
10h 16m
Waxing Crescent, 14% of the Moon is Illuminated
Feb 13
Waxing Crescent
Feb 17
First Quarter
Feb 25
Full
Mar 4
Last Quarter
Mar 11
New

Hourly Weather History & Observations

Time (PST) Temp. Windchill Dew Point Humidity Pressure Visibility Wind Dir Wind Speed Gust Speed Precip Events Conditions
12:33 AM 48.2 °F - 33.8 °F 58% 30.20 in 10.0 mi Variable 6.9 mph - N/A   Clear
12:53 AM 43.0 °F - 33.1 °F 68% 30.22 in 10.0 mi Calm Calm - N/A   Clear
1:53 AM 39.0 °F 34.8 °F 32.0 °F 76% 30.22 in 10.0 mi NNE 5.8 mph - N/A   Clear
2:53 AM 41.0 °F 36.4 °F 32.0 °F 70% 30.22 in 10.0 mi WNW 6.9 mph - N/A   Clear
3:53 AM 36.0 °F 32.1 °F 30.0 °F 79% 30.22 in 10.0 mi Variable 4.6 mph - N/A   Clear
4:53 AM 33.1 °F - 28.0 °F 82% 30.23 in 10.0 mi Calm Calm - N/A   Clear
5:53 AM 35.6 °F 30.7 °F 30.2 °F 81% 30.22 in 10.0 mi East 5.8 mph - N/A   Clear
6:53 AM 34.0 °F 31.0 °F 28.9 °F 82% 30.27 in 10.0 mi NNE 3.5 mph - N/A   Clear
7:53 AM 34.0 °F - 28.9 °F 82% 30.29 in 10.0 mi Calm Calm - N/A   Clear
8:53 AM 39.9 °F 36.7 °F 33.1 °F 77% 30.29 in 10.0 mi ENE 4.6 mph - N/A   Clear
9:53 AM 46.9 °F - 34.0 °F 61% 30.30 in 10.0 mi Calm Calm - N/A   Clear
10:53 AM 48.0 °F - 34.0 °F 58% 30.30 in 10.0 mi NE 4.6 mph - N/A   Clear
11:53 AM 48.9 °F - 35.1 °F 59% 30.30 in 10.0 mi East 3.5 mph - N/A   Clear
12:53 PM 55.9 °F - 30.9 °F 39% 30.27 in 10.0 mi West 17.3 mph 23.0 mph N/A   Clear
1:53 PM 57.0 °F - 30.0 °F 36% 30.27 in 10.0 mi WNW 16.1 mph - N/A   Clear
2:53 PM 57.9 °F - 30.0 °F 35% 30.28 in 10.0 mi West 18.4 mph 25.3 mph N/A   Scattered Clouds
3:53 PM 55.0 °F - 28.9 °F 37% 30.29 in 10.0 mi WNW 19.6 mph - N/A   Mostly Cloudy
4:53 PM 53.1 °F - 28.9 °F 40% 30.31 in 10.0 mi West 15.0 mph - N/A   Clear
5:53 PM 50.0 °F - 28.9 °F 44% 30.34 in 10.0 mi NW 10.4 mph - N/A   Scattered Clouds
6:53 PM 46.9 °F - 28.9 °F 50% 30.38 in 10.0 mi Calm Calm - N/A   Clear
7:53 PM 41.0 °F 38.0 °F 28.0 °F 60% 30.40 in 10.0 mi West 4.6 mph - N/A   Clear
8:53 PM 37.9 °F 34.4 °F 28.0 °F 68% 30.40 in 10.0 mi WSW 4.6 mph - N/A   Clear
9:53 PM 37.9 °F 34.4 °F 28.0 °F 68% 30.39 in 10.0 mi WNW 4.6 mph - N/A   Clear
10:53 PM 35.1 °F - 26.1 °F 70% 30.41 in 10.0 mi Calm Calm - N/A   Clear
11:53 PM 36.0 °F 32.1 °F 27.0 °F 70% 30.42 in 10.0 mi SW 4.6 mph - N/A   Clear